Regional Weather Roundup
Issued by NWS Wakefield, VA

Home | Current Version | Previous Version | Graphics & Text | Print | Product List | Glossary On
Versions: 1 2 3 4 5 6 7 8 9 10 11 12 13 14 15 16 17 18 19 20 21 22 23 24 25 26 27 28 29
000
ASUS41 KAKQ 281915
RWRAKQ

REGIONAL WEATHER ROUNDUP
NATIONAL WEATHER SERVICE WAKEFIELD VA
300 PM EDT THU JUL 28 2016

Note: "fair" indicates few or no clouds below 12,000 feet with no
significant weather and/or obstructions to visibility. * = Denotes
station may not report precipitation (e.g., rain,snow,etc.),
thunder or fog.

VAZ042-051-052>054-056-282000-
NORTHERN VIRGINIA

CITY           SKY/WX    TMP DP  RH WIND       PRES   REMARKS
WASH NATIONAL  FAIR      94  75  54 S12       29.83F HX 105
DULLES         PTSUNNY   89  72  56 N5        29.84F HX  96
FORT BELVOIR   FAIR      91  72  54 SW6       29.83F HX  98
QUANTICO       PTSUNNY   88  71  57 SE3       29.84F
FREDERICKSBRG*   N/A     94  75  54 SE5       29.82F HX 106
STAFFORD*      FAIR      93  71  48 SE3       29.87F HX  99
WARRENTON      FAIR      94  67  40 SE5       29.84F HX  97
CULPEPER*      FAIR      92  76  60 CALM      29.85F HX 104
MANASSAS*      MOSUNNY   93  70  46 CALM      29.84F HX  99
LEESBURG*      PTSUNNY   91  73  55 NW7       29.86F HX 100
WINCHESTER     RAIN      72  70  94 N7        29.90S
FRONT ROYAL*   CLOUDY    79  72  78 NW13G24   29.89R
LURAY*         NOT AVBL
$$

VAZ048-049-060>072-079>083-282000-
CENTRAL AND SOUTH CENTRAL VIRGINIA

CITY           SKY/WX    TMP DP  RH WIND       PRES   REMARKS
RICHMOND       FAIR      92  76  59 S9        29.83F HX 104
CHESTERFIELD*  MOCLDY    93  70  46 S7        29.85F HX  99
PETERSBURG*    FAIR      94  77  59 S3        29.85F HX 108
HANOVER        FAIR      94  72  48 S10       29.85F HX 102
TAPPAHANNOCK*  FAIR      97  70  41 SW9       29.84F HX 103
QUINTON*       FAIR      93  78  62 S6        29.83F HX 108
CHARLOTTSVILLE LGT RAIN  92  72  51 S7        29.85F HX  99
GORDONSVILLE*  FAIR      92  74  55 SW6       29.84F HX 103
ORANGE*          N/A     90  72  55 CALM      29.87F HX  96
LOUISA*        FAIR      93  79  62 S5        29.84F HX 110
BUMPASS*       MOCLDY    92  77  61 CALM      29.84F HX 104
FARMVILLE*     NOT AVBL
CREWE*         NOT AVBL
FORT PICKETT*  MOCLDY    90  78  68 S7        29.86F HX 105
CHASE CITY*    FAIR      93  75  54 S7        29.87F HX 104
CLARKSVILLE*   FAIR      93  75  55 S9        29.86F HX 104
SOUTH HILL*    PTSUNNY   89  79  70 S8        29.92F HX 104
LAWRENCEVILLE* FAIR      92  79  66 S8        29.86F HX 109
EMPORIA*       PTSUNNY   91  77  62 SE5       29.86F HX 105
$$

VAZ088>098-282000-
SOUTHEAST VIRGINIA

CITY           SKY/WX    TMP DP  RH WIND       PRES   REMARKS
NORFOLK        PTSUNNY   95  77  55 VRB6      29.83F HX 109
VIRGINIA BEACH PTSUNNY  100  79  51 S9G21     29.83F HX 119
NORFOLK NAVAL  FAIR      95  78  58 N7        29.85F HX 111
WEST POINT*    FAIR      93  75  55 S8        29.85F HX 104
SALUDA*        FAIR      92  78  64 SW7       29.83F HX 108
NEWPORT NEWS   FAIR      94  77  57 SW9G18    29.84F HX 108
LANGLEY AFB    NOT AVBL
FORT EUSTIS    FAIR      95  79  59 S6        29.82  HX 112
WILLIAMSBURG*  FAIR      97  79  56 S8        29.85F HX 115
HR EXEC AP*    FAIR      97  81  59 S9        29.85F HX 118
FRANKLIN*      PTSUNNY   92  78  63 S8        29.85F HX 107
US460-WAKEFLD  FAIR      94  77  57 S7        29.84F HX 108
$$

VAZ020-022-025-037-045-282000-
WEST CENTRAL AND SOUTHWEST VIRGINIA

CITY           SKY/WX    TMP DP  RH WIND       PRES   REMARKS
STAUNTON*      FAIR      87  71  58 SW7       29.90F
WAYNESBORO*    CLOUDY    85  72  64 E7        29.91F
HOT SPRINGS VA CLOUDY    77  68  73 S3        30.04F
LYNCHBURG      FAIR      91  72  53 SW8       29.89F HX  98
DANVILLE       FAIR      92  75  57 VRB7      29.87F HX 103
SOUTH BOSTON*  MOCLDY   N/A N/A N/A SW8       29.86F
MARTINSVILLE   FAIR      91  74  57 S3        29.90F HX 100
ROANOKE        PTSUNNY   89  69  51 VRB3      29.90F
BLACKSBURG     PTSUNNY   85  71  63 W3        29.97F
DUBLIN*        PTSUNNY   89  69  52 S5        29.95F
MARION*        FAIR      86  69  56 W13G20    30.00F
HILLSVILLE*    PTSUNNY   80  72  76 S6        29.98F
RICHLANDS*     CLOUDY    77  71  80 SW9       30.01F
WISE*          PTSUNNY   79  68  69 SW12      30.02F
ABINGDON*      PTSUNNY   84  71  64 W8        29.98F
$$

MDZ021>025-VAZ099-100-282000-
SOUTHERN MARYLAND AND THE DELMARVA PENINSULA

CITY           SKY/WX    TMP DP  RH WIND       PRES   REMARKS
PATUXENT RIVER PTSUNNY   91  77  63 SE12      29.83F HX 104
BAY BRIDGE APT CLOUDY    90  77  66 SW7       29.84S HX 102
LEONARDTOWN    SUNNY     91  72  52 W7        29.86S HX  98
DOVER          CLOUDY    77  77 100 S7        29.87R THUNDER
GEORGETOWN     RAIN      76  73  91 VRB6      29.89F FOG
EASTON         PTSUNNY   88  79  74 SE12G17   29.89S HX 102
CAMBRIDGE      MOSUNNY   90  75  62 S6        29.85R HX 100
SALISBURY      NOT AVBL
OCEAN CITY     HVY RAIN  77  75  93 CALM      29.88F FOG
WALLOPS ISLAND PTSUNNY   87  80  79 S13       29.85F HX 103
ACCOMACK*      NOT AVBL
$$

NCZ012>017-030>032-282000-
NORTH CENTRAL AND EASTERN NORTH CAROLINA

CITY           SKY/WX    TMP DP  RH WIND       PRES   REMARKS
ROANOKE RAPIDS FAIR      91  79  66 SW10      29.87F HX 107
RALEIGH        MOSUNNY   96  75  50 SW15      29.88F HX 108
ELIZABETH CITY SUNNY     95  77  55 SW12      29.86F HX 109
AHOSKIE*       SUNNY     92  80  66 SW3       29.86F HX 110
EDENTON*       SUNNY     96  77  53 S7        29.86F HX 110
CURRITUCK*     SUNNY     94  76  55 S6        29.87F HX 108
KILL DEVIL HLS SUNNY     99  77  50 SE9       29.86F HX 115
MANTEO           N/A     89  82  78 S14       29.87F HX 109
CAPE HATTERAS  SUNNY     86  80  82 SW8       29.90F HX 101
TARBORO*       FAIR      95  76  54 S8        29.87F HX 108
GOLDSBORO      SUNNY    100  66  32 W15G21    29.86F HX 104
WASHINGTON     SUNNY     94  76  56 SW9G16    29.87F HX 106
GREENVILLE     MOSUNNY   97  75  49 SW8G17    29.89F HX 109
NEW BERN       MOSUNNY   95  75  52 SW9       29.89F HX 107
WILMINGTON     SUNNY     97  70  41 SW15      29.90F HX 103
$$

VAZ048-282000-
ELSEWHERE

CITY           SKY/WX    TMP DP  RH WIND       PRES   REMARKS
HARRISBURG PA  CLOUDY    86  74  67 SE10G17   29.86R THUNDER
BALTIMORE      MOSUNNY   93  71  48 SW8       29.82F HX 100
ANNAPOLIS      PTSUNNY   89  78  70 S8        29.83S HX 103
ANDREWS AFB    FAIR      91  73  54 SW7       29.83  HX  98
PHILADELPHIA   TSTM      77  74  90 SW20G32   29.90R VSB 1
GREENSBORO     MOSUNNY   93  70  46 SW12      29.89F HX  99
ROCKY MOUNT    MOSUNNY   96  75  50 S10       29.87F HX 108
$$

VAZ100-282000-
MARINE

STATION/POSITION TIME  TEMP    WIND        PRES    WAVE   SWELL
                       AIR SEA DIR/SP/G            HT/PER HT/PER
                 (UTC) (F)     (DEG/KT/KT) (MB)    (FT/S) (FT/S)
BRANDYWINE LGT   1800   77     150/ 17/ 18   N/A
CAPE MAY NJ      1800   81 74  130/ 12/ 15 1011.1F
LEWES DE         1800   81 77  170/  9/ 13 1011.3F
OCEAN-CITY-INLET 1800   78 71   CALM  /  1 1012.7R
WACHAPREAGUE VA  1800   85 88  160/  8/ 10 1011.3F
THOMAS POINT MD  1900   85 85  160/ 11/ 11 1011.5F
GOOSES REEF MD   1900   87 86  160/ 10/ 12 1011.5F   1/ 3
COVE POINT MD    1800   84     180/ 12/ 13 1011.1F
SOLOMONS ISLAND  1800   89 86  200/  9/ 11   N/A
BISHOPS HEAD MD  1800   87     190/ 10/ 13 1011.0F
PINEY POINT MD   1800          130/  6/  6   N/A
POTOMAC MD       1900   87 86  150/ 12/ 14 1009.0F   1/ 3
CAMBRIDGE MD     1800   90 87  210/  8/ 11 1009.9F
LEWISETTA VA     1800   90 88  200/  7/ 10 1009.9F
RAPPAHANNOCK LGT 1800          190/  9/ 10 1011.6F
STINGRAY PT      1900   88 88  110/ 12/ 14 1010.8F   1/ 2
YORK RVR RNG VA  1800   85     140/ 12/ 13 1010.5F
YORKTOWN VA      1800   88 85   90/  7/  8 1010.6F
JAMESTOWN VA     1900   92     170/  8/ 12   N/A
DOMINION TERM VA 1800   89     120/  5/  6 1011.3F
KIPTOPEKE VA     1800      84  180/  8/  9   N/A
CHES BAY BRIDGE  1800   84 82   60/  9/ 11 1011.1F
CAPE HENRY VA    1800   87     140/ 12/ 15   N/A
WILLOUBY STN VA  1800   84      90/  7/  8   N/A
CAPE HENRY BUOY  1812      78                N/A     1/ 8
1ST LANDING BUOY 1900   85 82  150/ 12/ 14 1009.8F   1/ 3
CAPE CHARLES BUO 1826      81                N/A     1/ 8
OFFSHORE WE BUOY 1821      84                N/A     2/ 8
64NM E OF VA BCH 1850   83 84  190/ 10/ 12 1011.4F   2/ 8   2/ 8
DUCK PIER NC     1800   83 75  130/  7/  7 1011.5F
44100 DUCK FRF   1805      81                N/A     1/ 8
44056 DUCK FRF   1811      81                N/A     1/ 8
OREGON INLET NC  1800   86 84  180/ 12/ 14 1012.2F
HATTERAS NC      1800   86 83  220/  9/ 12 1012.7F
DIAMOND SHLS NC  1850   85 86  220/ 16/ 17 1012.3F   2/ 6   2/ 8
CAPE LOOKOUT NC  1900   89     210/  9/ 11 1012.3F
$$




USA.gov is the U.S. government's official web portal to all federal, state and local government web resources and services.